カタログに戻る

STARLINK-2478

運用中通信VLEO
NORAD 48135·PAYLOAD·🇺🇸 United States

打ち上げ Apr 7, 2021 から Cape Canaveral Space Force Station

Loading…

次のパス (今後24時間)

TLE

最新Source: CelesTrak SupGP

元期: Sep 14, 2026, 21:56 UTC

1 48135C 21027AV  26257.91437500 -.00025522  00000+0 -82021-3 0  2574
2 48135  53.1596   7.3543 0000916  89.4364 192.5575 15.31734356    17

AllMySatでSTARLINK-2478をリアルタイム追跡

Download on the App Store